15 daagse weersverwachting Sabadell (ES)

  • Overzicht
  • Per uur
  • 15 dagen
  • Extra
  • Vergelijk
  • Kaarten
  • Dagkaart
  • Meer »
  • Info
  • Statistieken
  • Directe link
    Temp 6h Neerslag Wind  
 08:13     17:53    Daglengte: 9:40 Vandaag
01:00
4.4 mm
9
07:00
33.0 mm
9
13:00
10°
40.6 mm
11
19:00
10°
42.0 mm
10
 08:13     17:54    Daglengte: 9:41 Morgen
01:00
11°
70.2 mm
8
warningclass
07:00
11°
63.6 mm
4
13:00
13°
71.8 mm
5
19:00
12°
79.4 mm
8
 08:12     17:55    Daglengte: 9:43 Donderdag 23 Jan
01:00
11°
78.1 mm
5
warningclass
07:00
10°
89.9 mm
1
13:00
14°
59.5 mm
2
19:00
10°
 
1
Locatie info
Region: CataluŮa
Latitude: 41.5519°N
Longitude: 2.1058°E
187 masl
Postcode: 08201
Temp/Neerslag /Baro Onweer/Dauwpunt
    Temp Baro 1h Neerslag Dauwpunt Wind UV Bewolking  
 08:13     17:53    Daglengte: 9:40 Vandaag
01:00
Voelt als: 2.8°
1027.5 hPa 4.4 mm
49%
4.8°
9
Windvlaag: -1.6 km/h
89%
02:00
Voelt als: 2.7°
1026.9 hPa 3.5 mm
82%
4.8°
9
Windvlaag: -1.3 km/h
91%
03:00
Voelt als: 3.1°
1026.4 hPa 4.9 mm
82%
5.0°
9
Windvlaag: -1 km/h
91%
04:00
Voelt als: 3.4°
1025.6 hPa 7.1 mm
82%
5.5°
9
Windvlaag: -3.4 km/h
91%
05:00
Voelt als: 3.4°
1025.4 hPa 6.6 mm
82%
6.0°
10
Windvlaag: -3 km/h
91%
06:00
Voelt als: 3.9°
1025.1 hPa 5.6 mm
82%
6.2°
10
Windvlaag: -1.3 km/h
89%
07:00
Voelt als: 4.3°
1025.4 hPa 5.4 mm
82%
6.2°
9
Windvlaag: -1.1 km/h
88%
08:00
Voelt als: 4.0°
1025.1 hPa 6.1 mm
82%
6.1°
11
Windvlaag: -1.7 km/h
90%
09:00
Voelt als: 4.8°
1025.3 hPa 6.7 mm
82%
7.1°
10
Windvlaag: -1.4 km/h
91%
10:00
Voelt als: 5.4°
1025.4 hPa 6.4 mm
82%
7.8°
11
Windvlaag: -1.2 km/h
91%
11:00
10°
Voelt als: 5.9°
1025.7 hPa 6.9 mm
82%
8.2°
10
Windvlaag: -0.6 km/h
91%
12:00
10°
1025.3 hPa 6.9 mm
82%
8.5°
11
Windvlaag: -0.9 km/h
91%
13:00
10°
1025.1 hPa 7.6 mm
82%
8.3°
11
Windvlaag: -0.7 km/h
91%
14:00
10°
1024.5 hPa 7.4 mm
82%
8.5°
11
Windvlaag: 0.1 km/h
91%
15:00
10°
1024.1 hPa 6.8 mm
82%
8.2°
11
Windvlaag: 0 km/h
91%
16:00
10°
1023.7 hPa 7.2 mm
82%
8.0°
10
Windvlaag: -0.4 km/h
90%
17:00
10°
Voelt als: 5.9°
1023.4 hPa 6.1 mm
82%
7.8°
11
Windvlaag: -1.1 km/h
90%
18:00
10°
Voelt als: 5.7°
1023.4 hPa 6.3 mm
82%
7.8°
10
Windvlaag: -0.7 km/h
91%
19:00
10°
Voelt als: 5.7°
1023.5 hPa 8.2 mm
82%
7.9°
10
Windvlaag: -0.6 km/h
90%
20:00
10°
Voelt als: 5.9°
1023.6 hPa 9.1 mm
82%
8.2°
10
Windvlaag: -0.4 km/h
91%
21:00
10°
Voelt als: 6.0°
1023.5 hPa 9.9 mm
82%
8.4°
10
Windvlaag: -0.1 km/h
91%
22:00
10°
1023.1 hPa 10.6 mm
82%
8.6°
10
Windvlaag: -0.4 km/h
91%
23:00
10°
1022.8 hPa 13.3 mm
82%
8.9°
9
Windvlaag: -0.3 km/h
91%
 08:13     17:54    Daglengte: 9:41 Morgen
00:00
11°
1022.2 hPa 13.3 mm
82%
8.9°
8
Windvlaag: -1.1 km/h
91%
01:00
11°
1021.9 hPa 14.0 mm
82%
9.7°
8
Windvlaag: -0.1 km/h
91% warningclass
02:00
11°
1021.9 hPa 13.4 mm
82%
9.6°
7
Windvlaag: 1.4 km/h
88% warningclass
03:00
11°
1021.8 hPa 11.7 mm
82%
9.8°
5
Windvlaag: 1.2 km/h
91% warningclass
04:00
11°
1021.6 hPa 12.3 mm
82%
9.7°
4
Windvlaag: -0.1 km/h
87% warningclass
05:00
11°
1021.3 hPa 11.2 mm
82%
9.8°
4
Windvlaag: 0.5 km/h
77% warningclass
06:00
11°
1021.2 hPa 15.1 mm
82%
9.7°
4
Windvlaag: 0.2 km/h
63% warningclass
07:00
11°
1021.3 hPa
82%
9.6°
4
Windvlaag: 0 km/h
70%
08:00
11°
1021.7 hPa 14.8 mm
79%
9.5°
4
Windvlaag: -0.3 km/h
58% warningclass
09:00
11°
1022.2 hPa 10.7 mm
77%
9.4°
4
Windvlaag: -0.2 km/h
63% warningclass
10:00
11°
1022.5 hPa 15.3 mm
78%
10.0°
4
Windvlaag: 0.2 km/h
61% warningclass
11:00
12°
1022.8 hPa 15.4 mm
81%
10.3°
4
Windvlaag: 0.6 km/h
67%
12:00
13°
1022.4 hPa
69%
10.6°
5
Windvlaag: 1.6 km/h
83%
13:00
13°
1021.7 hPa 15.7 mm
67%
10.6°
5
Windvlaag: 1.1 km/h
71%
14:00
13°
1021.0 hPa 17.0 mm
82%
10.7°
5
Windvlaag: 0.1 km/h
88%
15:00
12°
1020.3 hPa 12.2 mm
82%
11.0°
5
Windvlaag: -0.3 km/h
91%
16:00
12°
1019.8 hPa 12.5 mm
82%
10.6°
5
Windvlaag: 0.3 km/h
90%
17:00
12°
1019.3 hPa 12.5 mm
82%
10.5°
6
Windvlaag: 0.8 km/h
91%
18:00
12°
1019.1 hPa 12.8 mm
82%
10.8°
7
Windvlaag: 1.3 km/h
91%
19:00
12°
1019.2 hPa 12.5 mm
82%
10.9°
8
Windvlaag: 1.2 km/h
90%
20:00
12°
1019.5 hPa 12.6 mm
82%
11.2°
8
Windvlaag: 1.3 km/h
91% warningclass
21:00
12°
1019.8 hPa 12.4 mm
82%
11.1°
7
Windvlaag: 1.1 km/h
90% warningclass
22:00
12°
1020.4 hPa 12.4 mm
100%
11.0°
6
Windvlaag: 1.2 km/h
100% warningclass
23:00
12°
1020.9 hPa 13.3 mm
100%
11.1°
6
Windvlaag: 0.7 km/h
100% warningclass
 08:12     17:55    Daglengte: 9:43 Donderdag 23 Jan
00:00
12°
1020.8 hPa 13.4 mm
100%
11.3°
5
Windvlaag: 0.8 km/h
100% warningclass
01:00
11°
1020.8 hPa 13.9 mm
100%
11.0°
5
Windvlaag: 0.4 km/h
99% warningclass
02:00
11°
1020.6 hPa 14.6 mm
100%
10.1°
5
Windvlaag: 0.8 km/h
99%
03:00
11°
1020.5 hPa 15.0 mm
100%
10.1°
4
Windvlaag: 0.5 km/h
99%
04:00
10°
1020.1 hPa 14.9 mm
100%
9.8°
2
Windvlaag: 0.6 km/h
98%
05:00
10°
1019.7 hPa 14.1 mm
100%
9.7°
2
Windvlaag: 0.7 km/h
99%
06:00
10°
1019.7 hPa 13.3 mm
100%
9.2°
2
Windvlaag: 0.9 km/h
91%
07:00
10°
Voelt als: 9.7°
1020.1 hPa 18.0 mm
99%
8.6°
1
Windvlaag: 1.4 km/h
52%
08:00
Voelt als: 8.8°
1020.7 hPa 29.8 mm
95%
7.4°
1
Windvlaag: 0.4 km/h
18% warningclass
09:00
1021.1 hPa 29.7 mm
86%
6.8°
1
Windvlaag: 0.4 km/h
9%
10:00
11°
1021.7 hPa
29%
8.1°
1
Windvlaag: 0.4 km/h
3%
11:00
13°
1022.4 hPa
22%
7.7°
1
Windvlaag: 0.5 km/h
2%
12:00
13°
1022.5 hPa
21%
8.0°
1
Windvlaag: 0.5 km/h
1%
13:00
14°
1022.0 hPa
21%
8.7°
2
Windvlaag: 0.5 km/h
2%
14:00
14°
1021.6 hPa
21%
8.9°
2
Windvlaag: 3.4 km/h
2%
15:00
13°
1021.5 hPa
21%
9.0°
2
Windvlaag: 3.4 km/h
3%
16:00
13°
1021.4 hPa
21%
9.0°
2
Windvlaag: 3.7 km/h
4%
17:00
12°
1021.4 hPa
21%
8.9°
1
Windvlaag: 4 km/h
13%
18:00
11°
1021.6 hPa
21%
8.7°
1
Windvlaag: 6.1 km/h
14%
19:00
10°
Voelt als: 9.8°
1021.9 hPa
21%
8.8°
1
Windvlaag: 1.1 km/h
16%
20:00
10°
Voelt als: 9.5°
1022.2 hPa
21%
7.9°
1
Windvlaag: 7 km/h
26%
21:00
Voelt als: 9.1°
1022.2 hPa
21%
7.2°
1
Windvlaag: 6.8 km/h
37%
22:00
1022.2 hPa
21%
6.5°
1
Windvlaag: 5.4 km/h
48%
23:00
Voelt als: 8.7°
1022.2 hPa
21%
5.8°
1
Windvlaag: 4.7 km/h
51%
 08:11     17:56    Daglengte: 9:45 Vrijdag 24 Jan
00:00
1022.2 hPa
21%
5.2°
1
Windvlaag: 4.7 km/h
58%
Temp/Neerslag /Baro Onweer/Dauwpunt
    Temp Baro Neerslag Dauwpunt Wind Bewolking  
 08:13     17:53    Daglengte: 9:40 Vandaag
01:00
Voelt als: 2.8°
1027.5 hPa 4.4 mm 4.8°
9
89%
04:00
Voelt als: 3.4°
1025.6 hPa 15.5 mm 5.5°
9
91%
07:00
Voelt als: 4.3°
1025.4 hPa 17.5 mm 6.2°
9
88%
10:00
Voelt als: 5.4°
1025.4 hPa 19.2 mm 7.8°
11
91%
13:00
10°
1025.1 hPa 21.4 mm 8.3°
11
91%
16:00
10°
1023.7 hPa 21.4 mm 8.0°
10
90%
19:00
10°
Voelt als: 5.7°
1023.5 hPa 20.6 mm 7.9°
10
90%
22:00
10°
1023.1 hPa 29.7 mm 8.6°
10
91%
 08:13     17:54    Daglengte: 9:41 Morgen
01:00
11°
1021.9 hPa 40.6 mm 9.7°
8
91% warningclass
04:00
11°
1021.6 hPa 37.4 mm 9.7°
4
87% warningclass
07:00
11°
1021.3 hPa 26.3 mm 9.6°
4
70%
10:00
11°
1022.5 hPa 40.8 mm 10.0°
4
61% warningclass
13:00
13°
1021.7 hPa 31.0 mm 10.6°
5
71%
16:00
12°
1019.8 hPa 41.7 mm 10.6°
5
90%
19:00
12°
1019.2 hPa 37.8 mm 10.9°
8
90%
22:00
12°
1020.4 hPa 37.4 mm 11.0°
6
100% warningclass
 08:12     17:55    Daglengte: 9:43 Donderdag 23 Jan
01:00
11°
1020.8 hPa 40.6 mm 11.0°
5
99% warningclass
04:00
10°
1020.1 hPa 44.6 mm 9.8°
2
98%
07:00
10°
Voelt als: 9.7°
1020.1 hPa 45.4 mm 8.6°
1
52%
10:00
11°
1021.7 hPa 59.5 mm 8.1°
1
3%
13:00
14°
1022.0 hPa   8.7°
2
2%
16:00
13°
1021.4 hPa   9.0°
2
4%
19:00
10°
Voelt als: 9.8°
1021.9 hPa   8.8°
1
16%
22:00
1022.2 hPa   6.5°
1
48%
 08:11     17:56    Daglengte: 9:45 Vrijdag 24 Jan
01:00
Voelt als: 8.0°
1022.1 hPa   4.6°
1
64%
04:00
Voelt als: 6.6°
1021.3 hPa 147.0 mm 4.4°
1
77%
07:00
Voelt als: 6.0°
1020.6 hPa 147.0 mm 4.6°
1
73%
10:00
10°
Voelt als: 9.7°
1020.6 hPa 147.0 mm 6.5°
1
39%
13:00
14°
1020.5 hPa 147.0 mm 8.3°
2
5%
16:00
12°
1020.3 hPa 147.0 mm 8.4°
2
44%
19:00
Voelt als: 8.3°
1020.3 hPa 147.0 mm 8.1°
1
84%
22:00
Voelt als: 6.6°
1020.6 hPa 147.0 mm 6.1°
2
75%
 08:10     17:58    Daglengte: 9:48 Zaterdag 25 Jan
01:00
Voelt als: 5.1°
1020.9 hPa 147.0 mm 4.1°
2
67%
04:00
Voelt als: 4.8°
1020.3 hPa 147.0 mm 3.5°
2
70%
07:00
Voelt als: 4.7°
1019.8 hPa 147.0 mm 2.9°
2
74%
10:00
Voelt als: 8.1°
1019.9 hPa 147.0 mm 5.4°
2
82%
13:00
13°
1019.8 hPa 147.0 mm 8.0°
2
90%
16:00
11°
1019.1 hPa 147.0 mm 8.8°
2
90%
19:00
10°
1018.7 hPa 147.0 mm 9.2°
1
90%
22:00
Voelt als: 8.6°
1018.9 hPa 147.0 mm 8.3°
1
89%
 08:10     17:59    Daglengte: 9:49 Zondag 26 Jan
01:00
Voelt als: 7.2°
1019.2 hPa 147.0 mm 7.3°
2
89%
04:00
Voelt als: 6.4°
1019.3 hPa 147.0 mm 5.6°
2
59%
07:00
Voelt als: 5.7°
1019.6 hPa 147.0 mm 4.0°
1
29%
10:00
Voelt als: 8.9°
1020.9 hPa 147.0 mm 6.0°
1
36%
13:00
12°
1022.1 hPa 147.0 mm 8.0°
1
42%
16:00
11°
1022.7 hPa 147.0 mm 8.2°
1
51%
19:00
10°
1023.4 hPa 147.0 mm 8.2°
1
59%
22:00
Voelt als: 7.7°
1023.9 hPa 147.0 mm 7.0°
2
34%
 08:09     18:00    Daglengte: 9:51 Maandag 27 Jan
01:00
Voelt als: 5.8°
1024.5 hPa 147.0 mm 5.7°
3
9%
04:00
Voelt als: 5.0°
1024.0 hPa 147.0 mm 5.1°
3
16%
07:00
Voelt als: 4.1°
1023.5 hPa 147.0 mm 4.4°
3
23%
10:00
10°
Voelt als: 8.1°
1023.3 hPa 147.0 mm 5.7°
3
12%
13:00
13°
1022.9 hPa 147.0 mm 6.7°
3
1%
16:00
11°
1022.1 hPa 147.0 mm 6.9°
2
1%
19:00
Voelt als: 7.6°
1021.5 hPa 147.0 mm 6.6°
2
1%
22:00
Voelt als: 5.5°
1021.0 hPa   4.9°
2
0%
 08:08     18:01    Daglengte: 9:53 Dinsdag 28 Jan
01:00
Voelt als: 3.5°
1020.4 hPa 294.0 mm 3.1°
3
0%
07:00
Voelt als: 3.1°
1017.5 hPa 294.0 mm 2.6°
3
69%
13:00
12°
1015.5 hPa 294.0 mm 5.1°
4
82%
19:00
10°
Voelt als: 7.8°
1014.7 hPa 294.0 mm 5.3°
4
92%
 08:07     18:03    Daglengte: 9:56 Woensdag 29 Jan
01:00
Voelt als: 3.9°
1017.2 hPa 294.0 mm 4.2°
2
54%
07:00
Voelt als: 3.4°
1018.1 hPa 294.0 mm 4.4°
3
35%
13:00
12°
1019.2 hPa 294.0 mm 4.1°
4
15%
19:00
Voelt als: 6.7°
1019.5 hPa 294.0 mm 2.2°
4
0%
 08:06     18:04    Daglengte: 9:58 Donderdag 30 Jan
01:00
Voelt als: 4.1°
1021.0 hPa 294.0 mm 1.9°
4
66%
07:00
Voelt als: 1.5°
1024.0 hPa 295.7 mm 1.5°
3
32%
13:00
10°
1029.0 hPa 296.7 mm 5.1°
2
1%
19:00
1023.8 hPa   5.2°
1
43%
 08:05     18:05    Daglengte: 10:00 Vrijdag 31 Jan
01:00
Voelt als: 7.1°
1025.5 hPa 0.2 mm 4.7°
2
36%
07:00
Voelt als: 6.0°
1025.3 hPa   3.7°
2
29%
13:00
13°
1026.2 hPa   5.9°
1
28%
19:00
10°
1025.5 hPa 0.2 mm 6.5°
1
31%
 08:04     18:07    Daglengte: 10:03 Zaterdag 01 Feb
01:00
Voelt als: 8.3°
1026.2 hPa   5.8°
2
32%
07:00
Voelt als: 7.4°
1024.9 hPa   5.0°
2
29%
13:00
14°
1025.5 hPa   7.1°
1
28%
19:00
11°
1025.1 hPa 0.2 mm 7.5°
1
30%
 08:03     18:08    Daglengte: 10:05 Zondag 02 Feb
01:00
10°
Voelt als: 9.1°
1026.5 hPa   6.4°
2
28%
07:00
Voelt als: 8.0°
1026.0 hPa 0.1 mm 5.4°
2
28%
13:00
14°
1026.1 hPa   7.2°
1
22%
19:00
11°
1025.2 hPa   7.5°
1
17%
 08:02     18:09    Daglengte: 10:07 Maandag 03 Feb
01:00
10°
Voelt als: 8.9°
1026.2 hPa   6.3°
2
18%
07:00
Voelt als: 7.9°
1025.7 hPa 0.1 mm 5.3°
2
23%
13:00
14°
1025.5 hPa 0.1 mm 6.5°
1
31%
19:00
10°
1024.7 hPa 0.2 mm 7.0°
1
23%
 08:01     18:10    Daglengte: 10:09 Dinsdag 04 Feb
01:00
Voelt als: 8.2°
1025.2 hPa   5.1°
1
23%
07:00
Voelt als: 6.9°
1024.4 hPa 0.1 mm 3.7°
2
22%
13:00
13°
1024.7 hPa   5.4°
1
21%
19:00
10°
Voelt als: 9.6°
1023.9 hPa 0.2 mm 6.3°
1
19%
  CAPE Lifted Index Hail Supercell Tornado SRH 3km CL BTM PRES CL TOP PRES Swiss DWD icon SMHI TS
 08:13     17:53    Daglengte: 9:40 Vandaag
01:00 0 J/kg 2.7 K 0 % 0 % 0 % 0 m²/s² 0 0 4.02 61
02:00 0 J/kg 3.5 K 0 % 0 % 0 % 0 m²/s² 0 0 3.83 61
03:00 0 J/kg 1.6 K 0 % 0 % 0 % 0 m²/s² 0 0 1.81 61
04:00 2 J/kg -0.1 K 0 % 0 % 0 % 0 m²/s² 0 0 0.14 63
05:00 162 J/kg -0.5 K 0 % 0 % 0 % 0 m²/s² 0 0 0.04 63
06:00 99 J/kg -0.7 K 0 % 0 % 0 % 0 m²/s² 0 0 0.05 63
07:00 14 J/kg -0.8 K 0 % 0 % 0 % 0 m²/s² 0 0 -0.05 63
08:00 27 J/kg -1.0 K 0 % 0 % 0 % 0 m²/s² 0 0 -0.49 63
09:00 68 J/kg -1.1 K 0 % 0 % 0 % 0 m²/s² 0 0 -0.35 63
10:00 104 J/kg -0.6 K 0 % 0 % 0 % 0 m²/s² 0 0 0.06 63
11:00 26 J/kg -0.1 K 0 % 0 % 0 % 0 m²/s² 0 0 0.29 80
12:00 27 J/kg -0.1 K 0 % 0 % 0 % 0 m²/s² 0 0 0.23 80
13:00 13 J/kg 0.1 K 0 % 0 % 0 % 0 m²/s² 0 0 0.49 80
14:00 0 J/kg 0.6 K 0 % 0 % 0 % 0 m²/s² 0 0 1.17 80
15:00 0 J/kg 0.7 K 0 % 0 % 0 % 0 m²/s² 0 0 1.84 80
16:00 0 J/kg 0.4 K 0 % 0 % 0 % 0 m²/s² 0 0 1.75 63
17:00 0 J/kg 0.4 K 0 % 0 % 0 % 0 m²/s² 0 0 1.54 80
18:00 0 J/kg 0.3 K 0 % 0 % 0 % 0 m²/s² 0 0 1.08 80
19:00 0 J/kg -0.2 K 0 % 0 % 0 % 0 m²/s² 0 0 0.13 63
20:00 0 J/kg -0.7 K 0 % 0 % 0 % 0 m²/s² 0 0 -0.55 63
21:00 0 J/kg -0.7 K 0 % 0 % 0 % 0 m²/s² 0 0 -0.34 63
22:00 174 J/kg -1.3 K 0 % 0 % 0 % 0 m²/s² 0 0 -0.94 63
23:00 358 J/kg -0.9 K 0 % 0 % 0 % 0 m²/s² 0 0 -0.75 63
 08:13     17:54    Daglengte: 9:41 Morgen
00:00 341 J/kg -2.3 K 0 % 0 % 0 % 0 m²/s² 0 0 -2.21 63
01:00 593 J/kg -2.7 K 0 % 0 % 0 % 0 m²/s² 0 0 -2.61 95
02:00 779 J/kg -3.4 K 0 % 0 % 0 % 0 m²/s² 0 0 -2.29 95
03:00 945 J/kg -4.0 K 0 % 0 % 0 % 0 m²/s² 0 0 -1.87 95
04:00 960 J/kg -4.0 K 0 % 0 % 0 % 0 m²/s² 0 0 -1.09 95
05:00 929 J/kg -3.9 K 0 % 0 % 0 % 0 m²/s² 0 0 -0.6 95
06:00 963 J/kg -4.2 K 0 % 0 % 0 % 0 m²/s² 0 0 -1.17 95
07:00 964 J/kg -4.2 K 0 % 0 % 0 % 0 m²/s² 0 0 -1.98 80
08:00 846 J/kg -3.7 K 0 % 0 % 0 % 0 m²/s² 0 0 -2.41 80
09:00 731 J/kg -3.2 K 0 % 0 % 0 % 0 m²/s² 0 0 -2.54 95
10:00 727 J/kg -3.2 K 0 % 0 % 0 % 0 m²/s² 0 0 -2.81 95
11:00 536 J/kg -2.1 K 0 % 0 % 0 % 0 m²/s² 0 0 -1.53 80
12:00 418 J/kg -1.6 K 0 % 0 % 0 % 0 m²/s² 0 0 -1.15 80
13:00 371 J/kg -1.2 K 0 % 0 % 0 % 0 m²/s² 0 0 -0.87 80
14:00 344 J/kg -0.6 K 0 % 0 % 0 % 0 m²/s² 0 0 -0.33 80
15:00 321 J/kg -0.6 K 0 % 0 % 0 % 0 m²/s² 0 0 -0.15 80
16:00 343 J/kg -0.8 K 0 % 0 % 0 % 0 m²/s² 0 0 -0.11 80
17:00 365 J/kg -1.1 K 0 % 0 % 0 % 0 m²/s² 0 0 -0.23 80
18:00 366 J/kg -1.2 K 0 % 0 % 0 % 0 m²/s² 0 0 -0.36 80
19:00 414 J/kg -1.3 K 0 % 0 % 0 % 0 m²/s² 0 0 -0.94 80
20:00 456 J/kg -1.8 K 0 % 0 % 0 % 0 m²/s² 0 0 -1.56 95
21:00 570 J/kg -2.3 K 0 % 0 % 0 % 0 m²/s² 0 0 -2.03 95
22:00 726 J/kg -2.8 K 0 % 0 % 0 % 0 m²/s² 0 0 -2.47 95
23:00 818 J/kg -2.9 K 0 % 0 % 0 % 0 m²/s² 0 0 -2.63 95
 08:12     17:55    Daglengte: 9:43 Donderdag 23 Jan
00:00 901 J/kg -3.6 K 0 % 0 % 0 % 0 m²/s² 0 0 -3.36 95
01:00 896 J/kg -3.0 K 0 % 0 % 0 % 0 m²/s² 0 0 -2.67 95
02:00 0 J/kg 2.1 K 0 % 0 % 0 % 0 m²/s² 0 0 2.43 81
03:00 0 J/kg 1.4 K 0 % 0 % 0 % 0 m²/s² 0 0 1.94 81
04:00 0 J/kg 0.4 K 0 % 0 % 0 % 0 m²/s² 0 0 1.6 81
05:00 9 J/kg 0.9 K 0 % 0 % 0 % 0 m²/s² 0 0 1.77 81
06:00 2 J/kg 0.5 K 0 % 0 % 0 % 0 m²/s² 0 0 2.24 80
07:00 1 J/kg 0.3 K 0 % 0 % 0 % 0 m²/s² 0 0 2.34 80
08:00 0 J/kg -0.1 K 0 % 0 % 0 % 0 m²/s² 0 0 3.83 95
09:00 0 J/kg 0.0 K 0 % 0 % 0 % 0 m²/s² 0 0 4.5 80
10:00 0 J/kg 0.0 K 0 % 0 % 0 % 0 m²/s² 0 0 4.5 2
11:00 0 J/kg 0.0 K 0 % 0 % 0 % 0 m²/s² 0 0 4.05 2
12:00 47 J/kg -0.4 K 0 % 0 % 0 % 0 m²/s² 0 0 3.77 2
13:00 101 J/kg -0.7 K 0 % 0 % 0 % 0 m²/s² 0 0 3.59 2
14:00 23 J/kg -0.3 K 0 % 0 % 0 % 0 m²/s² 0 0 3.78 2
15:00 0 J/kg 0.1 K 0 % 0 % 0 % 0 m²/s² 0 0 4.18 1
16:00 0 J/kg 0.3 K 0 % 0 % 0 % 0 m²/s² 0 0 4.29 1
17:00 8 J/kg -0.2 K 0 % 0 % 0 % 0 m²/s² 0 0 3.58 0
18:00 356 J/kg -2.3 K 0 % 0 % 0 % 0 m²/s² 0 0 1.66 0
19:00 791 J/kg -4.0 K 0 % 0 % 0 % 0 m²/s² 0 0 -0.13 0
20:00 610 J/kg -3.5 K 0 % 0 % 0 % 0 m²/s² 0 0 0.16 0
21:00 461 J/kg -2.9 K 0 % 0 % 0 % 0 m²/s² 0 0 0.76 0
22:00 426 J/kg -3.0 K 0 % 0 % 0 % 0 m²/s² 0 0 0.57 0
23:00 519 J/kg -3.7 K 0 % 0 % 0 % 0 m²/s² 0 0 -0.31 0
 08:11     17:56    Daglengte: 9:45 Vrijdag 24 Jan
00:00 709 J/kg -4.1 K 0 % 0 % 0 % 0 m²/s² 0 0 -0.8 0
Temp Baro Wind Neerslag
  EWN Forecast EWN WRFDA DWD ICON FMI HIRLAM MET Norway GFS
 08:13     17:53    Daglengte: 9:40 Vandaag
01:00 7.2° 1027.5 hPa 8.7 m/s 4.4 mm 8.6° 1023.4 hPa 11.6 m/s 13.8 mm 6.8° 1028.0 hPa 7.4 m/s 1.9 mm 7.2° 1027.6 hPa 12.5 m/s 0.0 mm 6.8° 1027.9 hPa 7.9 m/s 8.1° 1026.5 hPa 11.5 m/s
04:00 7.7° 1025.6 hPa 9.3 m/s 15.5 mm 9.7° 1022.5 hPa 12.9 m/s 66.0 mm 7.3° 1027.0 hPa 6.9 m/s 8.6 mm 8.1° 1025.5 hPa 12.1 m/s 0.0 mm 6.7° 1025.8 hPa 9.0 m/s 9.3° 1025.4 hPa 12.0 m/s
07:00 8.4° 1025.4 hPa 9.3 m/s 17.5 mm 10.1° 1023.4 hPa 13.4 m/s 87.3 mm 8.3° 1026.5 hPa 6.9 m/s 8.6 mm 8.5° 1024.8 hPa 12.0 m/s 0.0 mm 7.5° 1025.7 hPa 8.9 m/s 10.0° 1025.2 hPa 8.4 m/s
10:00 9.5° 1025.4 hPa 10.7 m/s 19.2 mm 10.7° 1024.3 hPa 13.7 m/s 96.3 mm 9.2° 1026.4 hPa 8.4 m/s 12.2 mm 10.9° 1024.8 hPa 12.6 m/s 0.0 mm 9.1° 1025.4 hPa 10.8 m/s 10.8° 1025.5 hPa 10.1 m/s
13:00 10.0° 1025.1 hPa 10.7 m/s 21.4 mm 10.4° 1024.2 hPa 14.2 m/s 107.0 mm 9.7° 1026.0 hPa 9.2 m/s 1.9 mm 10.9° 1024.4 hPa 13.4 m/s 0.0 mm 9.9° 1025.1 hPa 10.5 m/s 11.3° 1024.9 hPa 10.8 m/s
16:00 10.0° 1023.7 hPa 10.5 m/s 21.4 mm 10.3° 1022.2 hPa 14.6 m/s 115.5 mm 9.4° 1024.4 hPa 7.9 m/s 6.0 mm 10.9° 1023.2 hPa 13.6 m/s 0.0 mm 9.9° 1023.8 hPa 10.2 m/s 11.1° 1023.3 hPa 11.4 m/s
19:00 9.7° 1023.5 hPa 10.4 m/s 20.6 mm 10.0° 1020.8 hPa 15.3 m/s 119.2 mm 9.5° 1024.3 hPa 8.1 m/s 5.9 mm 10.6° 1023.3 hPa 13.3 m/s 0.0 mm 9.5° 1024.0 hPa 10.0 m/s 11.0° 1022.3 hPa 12.6 m/s
22:00 10.1° 1023.1 hPa 9.7 m/s 29.7 mm 11.2° 1020.0 hPa 14.7 m/s 138.9 mm 10.0° 1023.4 hPa 7.9 m/s 11.8 mm 11.4° 1022.5 hPa 13.0 m/s 0.0 mm 9.6° 1023.8 hPa 9.2 m/s 11.3° 1021.9 hPa 11.6 m/s
 08:13     17:54    Daglengte: 9:41 Morgen
01:00 10.8° 1021.9 hPa 8.4 m/s 40.6 mm 11.7° 1018.8 hPa 14.7 m/s 190.5 mm 10.8° 1022.5 hPa 7.9 m/s 14.1 mm 12.5° 1021.6 hPa 10.6 m/s 0.0 mm 10.1° 1022.6 hPa 8.0 m/s 11.2° 1021.2 hPa 7.7 m/s
04:00 10.6° 1021.6 hPa 4.3 m/s 37.4 mm 12.4° 1019.3 hPa 9.9 m/s 213.9 mm 10.6° 1022.3 hPa 4.5 m/s 7.9 mm 11.9° 1021.2 hPa 5.4 m/s 0.0 mm 9.5° 1022.6 hPa 3.6 m/s 12.4° 1020.9 hPa 6.7 m/s
07:00 10.6° 1021.3 hPa 4.2 m/s 26.3 mm 12.4° 1020.2 hPa 7.3 m/s 216.9 mm 10.5° 1022.0 hPa 2.7 m/s 4.5 mm 11.5° 1021.1 hPa 4.3 m/s 0.0 mm 9.7° 1021.7 hPa 4.4 m/s 10.9° 1021.2 hPa 3.1 m/s
10:00 11.4° 1022.5 hPa 4.2 m/s 40.8 mm 12.5° 1021.4 hPa 7.2 m/s 219.0 mm 11.1° 1023.5 hPa 3.0 m/s 2.6 mm 11.8° 1022.2 hPa 4.1 m/s 0.0 mm 11.4° 1022.7 hPa 5.0 m/s 12.3° 1022.5 hPa 4.4 m/s
13:00 12.8° 1021.7 hPa 4.7 m/s 31.0 mm 12.4° 1019.2 hPa 9.1 m/s 226.9 mm 12.8° 1023.3 hPa 4.2 m/s 1.6 mm 13.3° 1021.0 hPa 4.5 m/s 0.0 mm 12.8° 1021.8 hPa 4.4 m/s 12.5° 1020.3 hPa 5.7 m/s
16:00 11.9° 1019.8 hPa 5.0 m/s 41.7 mm 12.7° 1017.4 hPa 9.7 m/s 232.9 mm 11.9° 1021.4 hPa 3.4 m/s 3.8 mm 12.5° 1019.1 hPa 6.0 m/s 0.0 mm 11.8° 1019.8 hPa 4.8 m/s 13.1° 1018.4 hPa 9.4 m/s
19:00 11.9° 1019.2 hPa 7.6 m/s 37.8 mm 12.6° 1017.8 hPa 8.9 m/s 236.4 mm 11.7° 1021.1 hPa 5.9 m/s 4.4 mm 12.4° 1018.7 hPa 7.9 m/s 0.0 mm 11.8° 1019.2 hPa 7.8 m/s 12.9° 1018.4 hPa 9.0 m/s
22:00 11.9° 1020.4 hPa 6.5 m/s 37.4 mm 12.6° 1018.7 hPa 6.6 m/s 240.3 mm 12.0° 1021.0 hPa 6.5 m/s 4.2 mm 11.8° 1020.6 hPa 6.5 m/s 12.7° 1019.3 hPa 7.0 m/s
 08:12     17:55    Daglengte: 9:43 Donderdag 23 Jan
01:00 11.5° 1020.8 hPa 5.0 m/s 40.6 mm 12.4° 1018.1 hPa 4.0 m/s 251.1 mm 11.8° 1021.4 hPa 5.0 m/s 9.2 mm 11.1° 1021.2 hPa 5.1 m/s 11.4° 1019.2 hPa 6.1 m/s
04:00 10.3° 1020.1 hPa 2.0 m/s 44.6 mm 10.0° 1017.8 hPa 1.0 m/s 260.9 mm 11.5° 1020.3 hPa 1.0 m/s 13.4 mm 9.9° 1021.3 hPa 1.7 m/s 10.1° 1018.1 hPa 0.3 m/s
07:00 9.9° 1020.1 hPa 1.4 m/s 45.4 mm 9.1° 1019.2 hPa 1.3 m/s 264.0 mm 10.6° 1020.2 hPa 0.9 m/s 4.5 mm 9.7° 1020.6 hPa 1.1 m/s 9.6° 1019.3 hPa 0.9 m/s
10:00 11.4° 1021.7 hPa 1.1 m/s 59.5 mm 11.2° 1020.6 hPa 2.3 m/s 264.0 mm 11.6° 1021.3 hPa 0.2 m/s 1.2 mm 11.4° 1022.3 hPa 1.1 m/s 10.7° 1021.5 hPa 1.4 m/s
13:00 13.8° 1022.0 hPa 1.7 m/s 0.0 mm 14.0° 1020.8 hPa 2.5 m/s 264.0 mm 14.0° 1021.3 hPa 0.9 m/s 0.0 mm 13.6° 1022.8 hPa 1.7 m/s 13.7° 1021.8 hPa 0.9 m/s
16:00 12.8° 1021.4 hPa 1.5 m/s 0.0 mm 14.9° 1019.8 hPa 3.4 m/s 264.0 mm 14.1° 1020.0 hPa 1.1 m/s 0.0 mm 11.2° 1022.8 hPa 1.4 m/s 14.1° 1020.8 hPa 1.5 m/s
19:00 10.0° 1021.9 hPa 1.3 m/s 0.0 mm 11.9° 1020.1 hPa 4.6 m/s 264.0 mm 10.8° 1021.2 hPa 0.6 m/s 0.0 mm 8.9° 1022.8 hPa 1.0 m/s 11.7° 1021.3 hPa 0.6 m/s
22:00 9.0° 1022.2 hPa 1.1 m/s 0.0 mm 11.4° 1020.8 hPa 2.3 m/s 264.0 mm 9.2° 1021.9 hPa 0.6 m/s 0.0 mm 8.3° 1022.8 hPa 1.1 m/s 10.8° 1022.0 hPa 1.5 m/s
 08:11     17:56    Daglengte: 9:45 Vrijdag 24 Jan
01:00 8.2° 1022.1 hPa 1.2 m/s 0.0 mm 11.5° 1019.5 hPa 1.7 m/s 264.1 mm 7.8° 1021.9 hPa 1.0 m/s 0.0 mm 7.8° 1022.7 hPa 1.1 m/s 9.8° 1021.3 hPa 1.5 m/s
04:00 6.9° 1021.3 hPa 1.1 m/s 147.0 mm 6.7° 1021.4 hPa 1.0 m/s 9.2° 1020.2 hPa 1.8 m/s 147.0 mm
07:00 6.3° 1020.6 hPa 1.1 m/s 147.0 mm 6.1° 1020.7 hPa 1.0 m/s 8.5° 1019.7 hPa 2.0 m/s 147.0 mm
10:00 9.9° 1020.6 hPa 1.4 m/s 147.0 mm 9.9° 1020.7 hPa 1.3 m/s 9.9° 1020.2 hPa 2.0 m/s 147.0 mm
13:00 13.8° 1020.5 hPa 1.6 m/s 147.0 mm 13.8° 1020.6 hPa 1.6 m/s 14.2° 1019.7 hPa 2.1 m/s 147.0 mm
16:00 11.5° 1020.3 hPa 1.6 m/s 147.0 mm 11.2° 1020.5 hPa 1.6 m/s 15.4° 1018.9 hPa 2.2 m/s 147.0 mm
19:00 8.8° 1020.3 hPa 1.5 m/s 147.0 mm 8.5° 1020.3 hPa 1.5 m/s 12.3° 1019.8 hPa 1.1 m/s 147.0 mm
22:00 7.7° 1020.6 hPa 1.8 m/s 147.0 mm 7.4° 1020.6 hPa 1.9 m/s 10.6° 1020.8 hPa 1.5 m/s 147.0 mm
 08:10     17:58    Daglengte: 9:48 Zaterdag 25 Jan
01:00 6.5° 1020.9 hPa 2.1 m/s 147.0 mm 6.3° 1020.9 hPa 2.2 m/s 9.3° 1020.7 hPa 0.9 m/s 147.0 mm
04:00 6.2° 1020.3 hPa 1.9 m/s 147.0 mm 6.0° 1020.3 hPa 2.0 m/s 8.6° 1020.3 hPa 1.4 m/s 147.0 mm
07:00 5.9° 1019.8 hPa 1.8 m/s 147.0 mm 5.7° 1019.8 hPa 1.8 m/s 8.2° 1020.0 hPa 1.4 m/s 147.0 mm
10:00 9.2° 1019.9 hPa 2.1 m/s 147.0 mm 9.2° 1019.8 hPa 2.2 m/s 9.7° 1021.0 hPa 1.6 m/s 147.0 mm
13:00 12.6° 1019.8 hPa 2.5 m/s 147.0 mm 12.6° 1019.7 hPa 2.6 m/s 13.2° 1020.4 hPa 0.9 m/s 147.0 mm
16:00 11.2° 1019.1 hPa 1.7 m/s 147.0 mm 11.1° 1019.1 hPa 1.8 m/s 13.4° 1019.2 hPa 1.5 m/s 147.0 mm
19:00 9.7° 1018.7 hPa 0.9 m/s 147.0 mm 9.5° 1018.5 hPa 0.9 m/s 11.3° 1020.5 hPa 1.0 m/s 147.0 mm
22:00 8.9° 1018.9 hPa 1.3 m/s 147.0 mm 8.8° 1018.6 hPa 1.4 m/s 10.3° 1022.0 hPa 0.5 m/s 147.0 mm
 08:10     17:59    Daglengte: 9:49 Zondag 26 Jan
01:00 8.2° 1019.2 hPa 1.9 m/s 147.0 mm 8.1° 1018.8 hPa 1.9 m/s 9.4° 1023.1 hPa 1.7 m/s 147.0 mm
04:00 7.3° 1019.3 hPa 1.7 m/s 147.0 mm 7.2° 1019.0 hPa 1.6 m/s 8.5° 1023.0 hPa 1.7 m/s 147.0 mm
07:00 6.4° 1019.6 hPa 1.4 m/s 147.0 mm 6.3° 1019.2 hPa 1.4 m/s 7.8° 1023.9 hPa 1.5 m/s 147.0 mm
10:00 9.2° 1020.9 hPa 1.4 m/s 147.0 mm 9.2° 1020.5 hPa 1.4 m/s 9.2° 1025.9 hPa 1.7 m/s 147.0 mm
13:00 12.2° 1022.1 hPa 1.3 m/s 147.0 mm 12.1° 1021.8 hPa 1.3 m/s 12.7° 1025.7 hPa 1.5 m/s 147.0 mm
16:00 11.1° 1022.7 hPa 1.2 m/s 147.0 mm 10.8° 1022.5 hPa 1.1 m/s 14.0° 1024.9 hPa 1.7 m/s 147.0 mm
19:00 9.7° 1023.4 hPa 1.1 m/s 147.0 mm 9.5° 1023.1 hPa 1.0 m/s 11.4° 1026.1 hPa 1.9 m/s 147.0 mm
22:00 8.6° 1023.9 hPa 1.8 m/s 147.0 mm 8.4° 1023.7 hPa 1.8 m/s 9.7° 1027.1 hPa 2.1 m/s 147.0 mm
 08:09     18:00    Daglengte: 9:51 Maandag 27 Jan
01:00 7.5° 1024.5 hPa 2.6 m/s 147.0 mm 7.4° 1024.2 hPa 2.6 m/s 8.7° 1027.2 hPa 2.1 m/s 147.0 mm
04:00 6.9° 1024.0 hPa 2.8 m/s 147.0 mm 6.8° 1023.8 hPa 2.9 m/s 7.9° 1026.3 hPa 2.1 m/s 147.0 mm
07:00 6.4° 1023.5 hPa 3.0 m/s 147.0 mm 6.3° 1023.3 hPa 3.1 m/s 7.3° 1026.1 hPa 2.3 m/s 147.0 mm
10:00 9.6° 1023.3 hPa 2.9 m/s 147.0 mm 9.7° 1023.0 hPa 3.0 m/s 8.8° 1026.8 hPa 2.3 m/s 147.0 mm
13:00 13.0° 1022.9 hPa 2.7 m/s 147.0 mm 13.0° 1022.6 hPa 2.8 m/s 13.0° 1025.8 hPa 1.7 m/s 147.0 mm
16:00 11.0° 1022.1 hPa 2.3 m/s 147.0 mm 10.7° 1022.0 hPa 2.4 m/s 14.1° 1023.9 hPa 1.6 m/s 147.0 mm
19:00 8.6° 1021.5 hPa 1.9 m/s 147.0 mm 8.4° 1021.3 hPa 2.0 m/s 11.1° 1023.9 hPa 1.3 m/s 147.0 mm
22:00 7.1° 1021.0 hPa 2.4 m/s 147.0 mm 7.0° 1020.7 hPa 2.5 m/s 9.2° 1024.2 hPa 2.1 m/s 147.0 mm
 08:08     18:01    Daglengte: 9:53 Dinsdag 28 Jan
01:00 5.7° 1020.4 hPa 2.8 m/s 147.0 mm 5.5° 1020.1 hPa 2.9 m/s 8.1° 1023.8 hPa 2.1 m/s 147.0 mm
07:00 5.2° 1017.5 hPa 2.6 m/s 147.0 mm 5.1° 1017.1 hPa 2.6 m/s 6.8° 1021.8 hPa 2.4 m/s 147.0 mm
13:00 12.3° 1015.5 hPa 3.8 m/s 147.0 mm 12.2° 1015.0 hPa 4.0 m/s 13.2° 1021.6 hPa 1.5 m/s 147.0 mm
19:00 9.6° 1014.7 hPa 3.5 m/s 147.0 mm 9.5° 1014.1 hPa 3.7 m/s 11.0° 1020.9 hPa 1.4 m/s 147.0 mm
 08:07     18:03    Daglengte: 9:56 Woensdag 29 Jan
01:00 5.8° 1017.2 hPa 2.5 m/s 147.0 mm 5.6° 1016.8 hPa 2.5 m/s 8.6° 1021.2 hPa 2.2 m/s 147.0 mm
07:00 5.8° 1018.1 hPa 3.0 m/s 147.0 mm 5.6° 1018.0 hPa 3.1 m/s 7.9° 1018.8 hPa 2.4 m/s 147.0 mm
13:00 11.5° 1019.2 hPa 3.9 m/s 147.0 mm 11.4° 1019.3 hPa 4.0 m/s 12.9° 1018.1 hPa 2.3 m/s 147.0 mm
19:00 9.0° 1019.5 hPa 4.2 m/s 147.0 mm 8.8° 1019.6 hPa 4.5 m/s 11.6° 1018.1 hPa 0.9 m/s 147.0 mm
 08:06     18:04    Daglengte: 9:58 Donderdag 30 Jan
01:00 6.9° 1021.0 hPa 4.3 m/s 147.0 mm 6.6° 1020.9 hPa 4.6 m/s 10.7° 1021.9 hPa 1.3 m/s 147.0 mm
07:00 3.9° 1024.0 hPa 2.6 m/s 148.1 mm 3.4° 1023.9 hPa 2.8 m/s 9.3° 1024.8 hPa 0.6 m/s 148.1 mm
13:00 10.5° 1029.0 hPa 2.2 m/s 148.4 mm 10.5° 1029.0 hPa 2.2 m/s 148.4 mm
19:00 9.4° 1023.8 hPa 1.0 m/s 0.0 mm
 08:05     18:05    Daglengte: 10:00 Vrijdag 31 Jan
01:00 8.3° 1025.5 hPa 2.1 m/s 0.2 mm
07:00 7.5° 1025.3 hPa 2.2 m/s 0.0 mm
13:00 13.0° 1026.2 hPa 1.1 m/s 0.0 mm
19:00 10.1° 1025.5 hPa 1.1 m/s 0.2 mm
 08:04     18:07    Daglengte: 10:03 Zaterdag 01 Feb
01:00 9.2° 1026.2 hPa 1.9 m/s 0.0 mm
07:00 8.7° 1024.9 hPa 2.4 m/s 0.0 mm
13:00 14.0° 1025.5 hPa 1.0 m/s 0.0 mm
19:00 10.7° 1025.1 hPa 0.8 m/s 0.2 mm
 08:03     18:08    Daglengte: 10:05 Zondag 02 Feb
01:00 9.6° 1026.5 hPa 1.6 m/s 0.0 mm
07:00 8.9° 1026.0 hPa 1.9 m/s 0.1 mm
13:00 14.0° 1026.1 hPa 0.9 m/s 0.0 mm
19:00 10.8° 1025.2 hPa 0.9 m/s 0.0 mm
 08:02     18:09    Daglengte: 10:07 Maandag 03 Feb
01:00 9.5° 1026.2 hPa 1.7 m/s 0.0 mm
07:00 8.9° 1025.7 hPa 2.0 m/s 0.1 mm
13:00 13.8° 1025.5 hPa 1.1 m/s 0.1 mm
19:00 10.3° 1024.7 hPa 1.2 m/s 0.2 mm
 08:01     18:10    Daglengte: 10:09 Dinsdag 04 Feb
01:00 8.7° 1025.2 hPa 1.5 m/s 0.0 mm
07:00 7.9° 1024.4 hPa 1.8 m/s 0.1 mm
13:00 13.2° 1024.7 hPa 1.4 m/s 0.0 mm
19:00 9.9° 1023.9 hPa 1.5 m/s 0.2 mm
FMI Hirlam - 7.5 km EWN WRFDA - 12 km DWD ICON - 7 km GFS - 25 km Basiskaart






























































Updatetijd (Europe/Amsterdam) Resolutie Lengte Stap
FMI Hirlam 00:15, 06:15, 12:15, 18:15 7.5 km 49h 1h
EWN WRFDA 20:30, 02:30, 08:30, 14:30 12 km 73h 1h
DWD ICON 22:45, 04:45, 10:45, 16:45 7 km 75h 1h
GFS 19:30, 01:30, 07:30, 13:30 25 km 237h 3h
30+ mm
25-30 mm
20-25 mm
15-20 mm
10-15 mm
6-10 mm
4-6 mm
2-4 mm
1-2 mm
0.5-1 mm
0.2-0.5 mm
0.1-0.2 mm
30+ mm
25-30 mm
20-25 mm
15-20 mm
10-15 mm
6-10 mm
4-6 mm
2-4 mm
1-2 mm
0.5-1 mm
0.2-0.5 mm
0.1-0.2 mm
Sneeuwval
Natte sneeuw
Hagel
Vorst
30+ mm
25-30 mm
20-25 mm
15-20 mm
10-15 mm
6-10 mm
4-6 mm
2-4 mm
1-2 mm
0.5-1 mm
0.2-0.5 mm
0.1-0.2 mm
Sneeuwval
Natte sneeuw
Hagel
Vorst
Onweer
50 mm
40 mm
30 mm
26 mm
22 mm
18 mm
14 mm
10 mm
9 mm
8 mm
7 mm
6 mm
5 mm
4.5 mm
4 mm
3.5 mm
3 mm
2.5 mm
2 mm
1.5 mm
1 mm
0.8 mm
0.6 mm
0.4 mm
0.2 mm
0.05 mm
35°
30°
25°
20°
15°
10°
-5°
-10°
-15°
-20°
-25°
-30°
-35°
120> km/h
105 km/h
90 km/h
75 km/h
60 km/h
50 km/h
40 km/h
30 km/h
20 km/h
10 km/h
0 km/h
2600 J/kg
2400 J/kg
2200 J/kg
2000 J/kg
1800 J/kg
1600 J/kg
1400 J/kg
1200 J/kg
1000 J/kg
800 J/kg
600 J/kg
400 J/kg
200 J/kg
70 dBZ
65 dBZ
60 dBZ
55 dBZ
50 dBZ
45 dBZ
40 dBZ
35 dBZ
30 dBZ
25 dBZ
20 dBZ
15 dBZ
10 dBZ
5 dBZ
-1 K
-2 K
-3 K
-4 K
-5 K
-6 K
-7 K
-8 K
-9 K
950 m²/s²
900 m²/s²
850 m²/s²
800 m²/s²
750 m²/s²
700 m²/s²
650 m²/s²
600 m²/s²
550 m²/s²
500 m²/s²
450 m²/s²
400 m²/s²
350 m²/s²
300 m²/s²
250 m²/s²
200 m²/s²
150 m²/s²
100 m²/s²
46 m/s
44 m/s
42 m/s
40 m/s
38 m/s
36 m/s
34 m/s
32 m/s
30 m/s
28 m/s
26 m/s
24 m/s
22 m/s
20 m/s
16 m/s
12 m/s
8 m/s
4 m/s
30 m/s
28 m/s
26 m/s
24 m/s
22 m/s
20 m/s
18 m/s
16 m/s
14 m/s
12 m/s
10 m/s
8 m/s
6 m/s
4 m/s
2 m/s
3.0
2.8
2.6
2.4
2.2
2.0
1.8
1.6
1.4
1.2
1.0
0.8
0.6
0.4
0.2
15
14
13
12
11
10
9
8
7
6
5
4
3
2
1
90%
80%
70%
60%
50%
40%
30%
20%
10%
42
40
38
36
34
32
30
28
26
24
22
20
18
16
14
12
90+ cm
80-90 cm
70-80 cm
60-70 cm
50-60 cm
40-50 cm
30-40 cm
20-30 cm
10-20 cm
1-10 cm
Sneeuwval
Natte sneeuw
Regen
>120 mm
115 mm
110 mm
105 mm
100 mm
95 mm
90 mm
85 mm
80 mm
75 mm
70 mm
65 mm
60 mm
55 mm
50 mm
45 mm
45 mm
40 mm
35 mm
30 mm
25 mm
20 mm
15 mm
10 mm
5 mm
0.1 mm
960 hPa
880 hPa
800 hPa
720 hPa
640 hPa
560 hPa
584 gpdm
568 gpdm
552 gpdm
536 gpdm
520 gpdm
504 gpdm
488 gpdm
Extreem zwaar Noodweer Kans op onweer
15% 15% 5% 50% 15%

Dag




Kaart






35°
30°
25°
20°
15°
10°
-5°
-10°
-15°
-20°